Overview Statistics Trail Chart Weather Telemetry Raw packets
 

This is the latest recevied weather packets stored in our database for station/object KI5RAB. If no packets are shown the sender has not sent any weather packets the latest 10 day(s).

<< 3 4 5 6 7 8 9 >>
Time Temp. Humidity Pressure Rain* Wind** Luminosity Snow
1788638978 36.11° C 48% 1015.2 hPa 0 mm - 183 W/m² -
1788638675 35.56° C 49% 1015.5 hPa 0 mm - 672 W/m² -
1788638373 35.56° C 50% 1015.4 hPa 0 mm - 679 W/m² -
1788638068 35° C 51% 1015.5 hPa 0 mm - 695 W/m² -
1788637764 35.56° C 51% 1015.5 hPa 0 mm - 687 W/m² -
1788637463 35.56° C 52% 1015.5 hPa 0 mm - 218 W/m² -
1788637163 35° C 49% 1015.7 hPa 0 mm - 693 W/m² -
1788636858 34.44° C 50% 1015.8 hPa 0 mm - 691 W/m² -
1788636553 35° C 52% 1015.8 hPa 0 mm - 700 W/m² -
1788636249 34.44° C 52% 1015.9 hPa 0 mm - 716 W/m² -
1788635948 34.44° C 51% 1016.2 hPa 0 mm - 466 W/m² -
1788635647 33.33° C 55% 1016.2 hPa 0 mm - 744 W/m² -
1788635343 35° C 51% 1016.2 hPa 0 mm - 159 W/m² -
1788635040 33.89° C 51% 1016.3 hPa 0 mm - 741 W/m² -
1788634739 35° C 49% 1016.4 hPa 0 mm - 771 W/m² -
1788634435 33.89° C 54% 1016.6 hPa 0 mm - 772 W/m² -
1788634133 34.44° C 52% 1016.5 hPa 0 mm - 417 W/m² -
1788633833 35.56° C 53% 1016.7 hPa 0 mm - 745 W/m² -
1788633531 35° C 53% 1016.9 hPa 0 mm - 403 W/m² -
1788633249 33.33° C 54% 1016.8 hPa 0 mm - 585 W/m² -
1788632922 34.44° C 55% 1016.9 hPa 0 mm - 351 W/m² -
1788632615 33.89° C 55% 1017 hPa 0 mm - 228 W/m² -
1788632311 33.33° C 58% 1017.3 hPa 0 mm - 793 W/m² -
1788632010 33.33° C 58% 1017.2 hPa 0 mm - 259 W/m² -
1788631709 33.33° C 59% 1017.3 hPa 0 mm - 244 W/m² -

* Rain latest hour (hover to see other rain measurements)
** Current wind speed in m/s (hover to see current wind gust speed)